Observations for Trim Patrick St
| Time | AQI | Temp °C | Hum % | Pres Pa | CO μg/m³ | H₂S μg/m³ | NO μg/m³ | NO₂ μg/m³ | O₃ μg/m³ | SO₂ μg/m³ | PM1 μg/m³ | PM2.5 μg/m³ | PM10 μg/m³ |
|---|---|---|---|---|---|---|---|---|---|---|---|---|---|
| Sunday 2 August 2026 | |||||||||||||
| 09:52 | 2 | 23 | 53 | 71,434 | 0.1 | 0 | 2.05 | 10.14 | 54.29 | 2.74 | 3.71 | 8.5 | 9.34 |
| 09:51 | 2 | 23 | 53 | 71,774 | 0.12 | 0 | 2.07 | 5.8 | 51.67 | 1.9 | 4.57 | 9.99 | 10.99 |
| 09:50 | 2 | 23 | 54 | 72,253 | 0.11 | 0 | 2.17 | 7.98 | 59 | 3.17 | 5.43 | 10.71 | 11.78 |
| 09:49 | 2 | 23 | 54 | 72,636 | 0.12 | 0 | 2.1 | 8.68 | 55.72 | 2.58 | 4.57 | 9.95 | 10.95 |
| 09:48 | 2 | 22.9 | 54 | 72,994 | 0.14 | 0 | 2.14 | 8.31 | 53.43 | 3.05 | 3.71 | 10.67 | 11.73 |
| 09:47 | 2 | 22.9 | 55 | 73,355 | 0.14 | 0 | 2.21 | 8.62 | 57.49 | 2.67 | 3.71 | 9.87 | 10.86 |
| 09:46 | 2 | 22.8 | 55 | 73,754 | 0.15 | 0 | 2.22 | 6.21 | 54.57 | 2.27 | 4.57 | 10.62 | 11.68 |
| 09:45 | 2 | 22.7 | 55 | 74,165 | 0.18 | 0 | 2.22 | 11.9 | 47.16 | 2.75 | 4.57 | 10.6 | 11.66 |
| 09:44 | 2 | 22.7 | 56 | 74,369 | 0.14 | 0 | 2.4 | 7.26 | 54.42 | 3 | 3.71 | 9.03 | 9.93 |
| 09:43 | 2 | 22.6 | 56 | 74,591 | 0.13 | 0 | 2.39 | 11.5 | 50.63 | 3.1 | 3.71 | 9.78 | 10.76 |
| 09:42 | 2 | 22.5 | 56 | 74,734 | 0.12 | 0 | 2.43 | 11.62 | 47.66 | 2.09 | 2 | 7.51 | 8.26 |
| 09:41 | 2 | 22.4 | 57 | 74,876 | 0.19 | 0 | 2.39 | 9.13 | 49.88 | 2.48 | 4.57 | 10.49 | 11.54 |
| 09:40 | 2 | 22.3 | 57 | 75,059 | 0.24 | 0 | 2.53 | 10.3 | 46.71 | 3.83 | 2.86 | 8.95 | 9.85 |
| 09:39 | 2 | 22.2 | 58 | 75,261 | 0.22 | 0 | 2.61 | 11.55 | 45.86 | 4.02 | 4.57 | 10.41 | 11.45 |
| 09:38 | 2 | 22.1 | 58 | 75,450 | 0.2 | 0 | 2.55 | 12.46 | 43.48 | 3.54 | 3.71 | 8.16 | 8.98 |
| 09:37 | 2 | 22 | 58 | 75,613 | 0.25 | 0 | 2.59 | 15.67 | 46.07 | 4.42 | 5.43 | 10.37 | 11.41 |
| 09:36 | 2 | 21.9 | 58 | 75,784 | 0.14 | 0 | 2.5 | 12.79 | 45.56 | 2.86 | 5.43 | 10.37 | 11.41 |
| 09:35 | 2 | 21.8 | 58 | 75,967 | 0.15 | 0 | 2.26 | 10.17 | 46.72 | 2.43 | 3.71 | 9.62 | 10.58 |
| 09:34 | 2 | 21.8 | 59 | 76,205 | 0.16 | 0 | 2.32 | 11.55 | 45.59 | 3.66 | 5.43 | 12.54 | 12.63 |
| 09:32 | 2 | 21.6 | 59 | 76,596 | 0.12 | 0 | 2.12 | 11.91 | 44.63 | 2.67 | 4.57 | 9.55 | 10.51 |